Hourly Data Report for October 16, 2014

All times are specified in Local Standard Time (LST). Add 1 hour to adjust for Daylight Saving Time where and when it is observed.

GJOA HAVEN A
NUNAVUT

68°38'08.000" N
95°51'01.000" W
46.90 m
2302337
71597
YHK

Download Data

Hourly Data (October 2014)
Hourly Data Report for October 16, 2014
Temp Definition
°C
Dew Point Temp Definition
°C
Rel Hum Definition
%
Wind Dir Definition
10's deg

Wind Spd Definition
km/h
Visibility Definition
km
Stn Press Definition
kPa
Hmdx Definition


Wind Chill Definition


Weather Definition


TIME
00:00 Legend Double Dagger -5.7 -6.2 96 33 26 16.1 101.35   -13 Snow
01:00 Legend Double Dagger -5.3 -5.7 97 33 24 16.1 101.37   -13 Snow
02:00 Legend Double Dagger -4.7 -5.1 97 33 26 3.6 101.39   -12 Snow
03:00 Legend Double Dagger -4.2 -4.3 99 34 30 4.0 101.43   -12 Snow
04:00 Legend Double Dagger -4.3 -4.4 99 34 34 3.6 101.47   -13 Freezing Rain,Snow
05:00 Legend Double Dagger -4.7 -5.1 97 35 35 16.1 101.49   -13 Rain
06:00 Legend Double Dagger -5.1 -5.5 97 34 39 16.1 101.52   -14 LegendNANA
07:00 Legend Double Dagger -5.4 -5.8 97 33 34 16.1 101.58   -14 LegendNANA
08:00 Legend Double Dagger -5.7 -6.2 96 33 32 16.1 101.60   -14 LegendNANA
09:00 Legend Double Dagger -6.1 -6.8 95 33 35 16.1 101.62   -15 LegendNANA
10:00 Legend Double Dagger -6.2 -6.9 95 33 34 16.1 101.66   -15 LegendNANA
11:00 Legend Double Dagger -6.1 -6.8 95 33 30 16.1 101.72   -14 LegendNANA
12:00 Legend Double Dagger -6.2 -6.7 96 33 28 16.1 101.78   -14 LegendNANA
13:00 Legend Double Dagger -6.5 -6.9 97 33 28 4.8 101.81   -15 Snow
14:00 Legend Double Dagger -6.9 -7.4 96 33 30 16.1 101.83   -15 LegendNANA
15:00 Legend Double Dagger -6.9 -7.4 97 32 24 16.1 101.89   -15 LegendNANA
16:00 Legend Double Dagger -7.0 -7.8 94 32 28 16.1 101.92   -15 LegendNANA
17:00 Legend Double Dagger -7.7 -8.4 95 32 28 16.1 101.94   -16 LegendNANA
18:00 Legend Double Dagger -7.9 -8.6 95 32 26 16.1 101.96   -16 LegendNANA
19:00 Legend Double Dagger -8.4 -9.3 93 31 24 16.1 101.98   -17 LegendNANA
20:00 Legend Double Dagger -8.6 -9.5 93 31 22 16.1 101.98   -16 LegendNANA
21:00 Legend Double Dagger -9.4 -10.3 93 30 24 16.1 102.01   -18 LegendNANA
22:00 Legend Double Dagger -9.8 -10.9 92 29 30 16.1 102.03   -19 LegendNANA
23:00 Legend Double Dagger -10.8 -11.9 92 30 34 16.1 102.05   -21 LegendNANA

Notes on Data Quality.

Legend

  • E = Estimated
  • M = Missing
  • NA = Not Available
  • ‡ = Partner data that is not subject to review by the National Climate Archives
Date modified: